Location: Lombard
(41.8800°N, 88.0080°W)
Time: 12:32:46
(UTC-06:00)

Vanguard 1 - All Passes

Search period start: 30 January 2023 00:00
Search period end: 09 February 2023 00:00
Orbit: 649 x 3831 km, 34.2° (Epoch: 29 January)

Date Brightness Start Highest point End Pass type
(mag) Time Alt. Az. Time Alt. Az. Time Alt. Az.
30 Jan - 03:49:03 10° S 03:54:20 20° SE 04:01:53 10° E visible
30 Jan - 06:05:10 10° SW 06:13:57 53° SSE 06:30:02 10° E visible
30 Jan - 08:24:26 10° W 08:36:40 65° S 08:57:43 10° ESE daylight
30 Jan - 10:45:35 10° W 11:01:11 49° SSW 11:22:53 10° SE daylight
30 Jan - 13:10:40 10° W 13:25:20 25° SW 13:41:32 10° S daylight
31 Jan - 04:08:14 10° SSW 04:14:15 27° SE 04:23:40 10° E visible
31 Jan - 06:25:24 10° WSW 06:34:28 58° SSE 06:51:17 10° E visible
31 Jan - 08:45:00 10° W 08:57:32 62° S 09:18:40 10° ESE daylight
31 Jan - 11:06:32 10° W 11:21:58 43° SSW 11:42:46 10° SSE daylight
31 Jan - 13:33:42 10° W 13:45:44 18° SW 13:58:43 10° SSW daylight
01 Feb - 04:27:51 10° SSW 04:34:19 34° SSE 04:45:08 10° E visible
01 Feb - 06:45:45 10° WSW 06:55:05 61° S 07:12:30 10° E daylight
01 Feb - 09:05:36 10° W 09:18:23 58° SSW 09:39:26 10° ESE daylight
01 Feb - 11:27:41 10° W 11:42:40 36° SSW 12:02:14 10° SSE daylight
01 Feb - 13:59:24 10° WSW 14:06:07 12° SW 14:13:06 10° SSW daylight
02 Feb - 04:47:45 10° SW 04:54:32 42° SSE 05:06:26 10° E visible
02 Feb - 07:06:09 10° WSW 07:15:48 62° S 07:33:39 10° ESE daylight
02 Feb - 09:26:15 10° W 09:39:13 52° SSW 09:59:58 10° SE daylight
02 Feb - 11:49:10 10° W 12:03:20 29° SW 12:21:09 10° SSE daylight
03 Feb - 02:52:14 10° S 02:55:49 15° SE 03:00:26 10° ESE visible
03 Feb - 05:07:49 10° SW 05:14:52 48° SSE 05:27:39 10° E visible
03 Feb - 07:26:37 10° W 07:36:32 61° S 07:54:44 10° ESE daylight
03 Feb - 09:47:02 10° W 10:00:01 46° SSW 10:20:12 10° SE daylight
03 Feb - 12:11:13 10° W 12:23:56 23° SW 12:39:19 10° S daylight
04 Feb - 03:11:12 10° S 03:15:47 22° SE 03:22:20 10° E visible
04 Feb - 05:28:02 10° WSW 05:35:20 54° SSE 05:48:48 10° E visible
04 Feb - 07:47:07 10° W 07:57:17 58° S 08:15:40 10° ESE daylight
04 Feb - 10:07:56 10° W 10:20:49 39° SSW 10:40:04 10° SSE daylight
04 Feb - 12:34:23 10° WSW 12:44:31 17° SW 12:56:10 10° SSW daylight
05 Feb - 03:30:44 10° SSW 03:35:51 29° SSE 03:43:45 10° E visible
05 Feb - 05:48:20 10° WSW 05:55:53 57° S 06:09:56 10° E visible
05 Feb - 08:07:40 10° W 08:18:04 53° SSW 08:36:25 10° SE daylight
05 Feb - 10:29:03 10° W 10:41:35 33° SSW 10:59:28 10° SSE daylight
05 Feb - 13:01:31 10° SW 13:05:07 11° SW 13:08:53 10° SW daylight
06 Feb - 03:50:35 10° SW 03:56:03 36° SSE 04:04:58 10° E visible
06 Feb - 06:08:43 10° WSW 06:16:29 58° S 06:31:01 10° ESE visible
06 Feb - 08:28:18 10° W 08:38:50 48° SSW 08:56:55 10° SE daylight
06 Feb - 10:50:34 10° W 11:02:19 26° SW 11:18:16 10° SSE daylight
07 Feb - 01:55:47 10° SSE 01:57:34 12° SE 01:59:35 10° ESE visible
07 Feb - 04:10:39 10° SW 04:16:22 43° SSE 04:26:03 10° E visible
07 Feb - 06:29:08 10° WSW 06:37:08 56° S 06:52:00 10° ESE visible
07 Feb - 08:49:02 10° W 08:59:36 41° SSW 09:17:07 10° SE daylight
07 Feb - 11:12:43 10° WSW 11:23:02 20° SW 11:36:12 10° S daylight
08 Feb - 02:14:13 10° S 02:17:36 17° SE 02:21:54 10° ESE visible
08 Feb - 04:30:51 10° WSW 04:36:45 48° SSE 04:47:06 10° E visible
08 Feb - 06:49:37 10° W 06:57:48 53° S 07:12:52 10° ESE daylight
08 Feb - 09:09:55 10° W 09:20:24 35° SSW 09:36:55 10° SSE daylight
08 Feb - 11:36:22 10° WSW 11:43:46 14° SW 11:52:25 10° SSW daylight
